Showing default

LAPAN A3, 41603

Orbit data source: Space-Track

LAPAN A3, 41603 is a payload satellite owned by LAPAN (ID) in SSO that was launched on Wed, 22 Jun 2016 UTC via a PSLV-XL launch vehicle from the Sirharikota (SRI). Payload-class satellites include a variety of spacecraft equipped with specific instruments for various scientific and technological missions. These include communications satellites like Starlink; space stations such as the ISS; scientific satellites like the Hubble; Earth observation satellites from companies like Planet Labs, Umbra, and HawkEye 360; GPS; miniature CubeSats for education and research; and military/defense satellites.

Loading next visibility...
Identifier
41603, 2016-040E
Orbit
SSO
Last TLE update
8 hours ago
Origin
Manufacturer
LAPAN
Mission
Operational Civil Imaging
Bus & Motor
TUBSAT, Unknown motor
Mass
120 kg wet, 120 kg dry
Launch date (UTC)
2016-06-22 (9 years ago)
Launch vehicle
PSLV-XL
Launch site
Sirharikota (SRI)
Object type
Payload
Rocket body
Debris
Shape & HBR
Box, 0.5 m
Radar Cross Section
0.225 m², Medium (>0.1 m² and < 1m²)

Expand to show TLE details & history

TLE from 8 hours ago
0 LAPAN A3
1 41603U 16040E   25129.49506203  .00004018  00000-0  14214-3 0  9991
2 41603  97.1374 135.3268 0011837  30.1251 330.0668 15.29641613493030
Epoch: 2025-05-09T11:52Z
Definitive object data (Epoch: 2025-05-09T11:52:53.359Z)
Latitude
-0.00007°
Longitude
89.55409°
Altitude
472.963 km
Speed
7.633 km/s
True Right ascension
09h 01m 18s
True Declination
0° 00' 00"
Sunlit
Object was in daylight at TLE epoch
Visualization TLE readout
Latitude
60.22619°
Longitude
-77.53895°
Altitude
487.192 km
Speed
7.627 km/s
Apparent Right ascension
18h 34m 27s
Apparent Declination
16° 20' 04"
Sunlit
Object is in daylight
Visualization observer readout
Local Sidereal Time
04:26:04
Azimuth
325.334° NNW
Elevation
-26.299°
Doppler factor
1
Orbital elements
Apogee altitude
481.935 km
Perigee altitude
465.714 km
Semi-major axis
6,851.961 km
Eccentricity
0.0011837
Inclination
97.1374°
RAAN
135.3268°
Arg. of periapsis
30.1251°
True anomaly
329.99903°
Mean anomaly
330.0668°
Eccentric anomaly
330.03292°
Mean motion
3.82667 °/min
BSTAR
0.00014214
Orbital period
94.08 mins
Loading maneuver chart data...
Loading SW <> Apogee altitude chart data...
Loading historical data...
Loading historical data...
Loading historical data...
Loading historical data...
Loading historical data...
Loading historical data...
Loading historical data...

LAPAN A3 Visibility forecast

Observer location: undefined°, undefined°

Span
Click to sort rows by Start time (UTC) header in descending order
Start Az.
Max El. time (UTC)
Max El. Az.
Max El.
End time (UTC)
End Az.
6 mins2025-05-10 00:33:58.083Z177.767° S2025-05-10 00:36:58.083Z269.349° W42.234°2025-05-10 00:39:58.083Z341.516° N
5 mins2025-05-10 13:33:58.083Z351.901° N2025-05-10 13:35:58.083Z304.639° NW34.253°2025-05-10 13:38:58.083Z216.679° SW
|